Location: Newark
(7.0858°N, 171.3717°E)
Time: 04:53:05
(UTC+00:00)

Tiros 1 despin weight - All Passes

Search period start: 27 November 2020 00:00
Search period end: 07 December 2020 00:00
Orbit: 593 x 642 km, 48.2° (Epoch: 26 November)

Date Brightness Start Highest point End Pass type
(mag) Time Alt. Az. Time Alt. Az. Time Alt. Az.
27 Nov - 09:35:54 10° NW 09:40:27 81° NE 09:44:56 10° SE night (unlit)
27 Nov - 21:47:18 10° SSW 21:51:33 39° SE 21:55:53 10° ENE daylight
27 Nov - 23:30:07 10° W 23:33:03 17° NW 23:36:01 10° N daylight
28 Nov - 08:12:17 10° N 08:15:19 17° NE 08:18:21 10° E night (unlit)
28 Nov - 09:52:38 10° WNW 09:56:47 35° SW 10:00:52 10° SSE night (unlit)
28 Nov - 22:03:20 10° SW 22:07:54 74° NW 22:12:32 10° NE daylight
29 Nov - 08:27:26 10° NNW 08:31:48 44° NE 08:36:05 10° ESE night (unlit)
29 Nov - 10:10:54 10° W 10:13:07 13° SW 10:15:18 10° SSW night (unlit)
29 Nov - 20:39:24 10° S 20:42:56 22° SE 20:46:31 10° ENE daylight
29 Nov - 22:20:24 10° WSW 22:24:19 28° NW 22:28:16 10° N daylight
30 Nov - 07:06:04 10° NE 07:06:33 10° NE 07:07:01 10° NE visible
30 Nov - 08:43:38 10° NW 08:48:10 66° SW 08:52:37 10° SSE visible
30 Nov - 20:54:47 10° SSW 20:59:15 60° SE 21:03:48 10° NE daylight
30 Nov - 22:39:27 10° WNW 22:40:51 11° NW 22:42:16 10° NNW daylight
01 Dec - 07:19:17 10° N 07:23:06 25° NE 07:26:51 10° ESE visible
01 Dec - 09:00:49 10° WNW 09:04:29 24° SW 09:08:06 10° S visible
01 Dec - 19:32:23 10° SSE 19:34:18 12° SE 19:36:14 10° ESE daylight
01 Dec - 21:11:14 10° SW 21:15:37 48° NW 21:20:04 10° NNE daylight
02 Dec - 07:34:57 10° NNW 07:39:31 68° NE 07:44:01 10° SE visible
02 Dec - 19:46:35 10° SSW 19:50:38 33° SE 19:54:44 10° ENE daylight
02 Dec - 21:28:50 10° W 21:32:04 19° NW 21:35:21 10° N daylight
03 Dec - 06:11:39 10° N 06:14:21 15° NE 06:17:02 10° E daylight
03 Dec - 07:51:31 10° WNW 07:55:51 42° SW 08:00:09 10° SSE visible
03 Dec - 20:02:26 10° SW 20:06:57 88° NW 20:11:32 10° NE daylight
04 Dec - 06:26:34 10° NNW 06:30:51 37° NE 06:35:04 10° ESE daylight
04 Dec - 08:09:20 10° W 08:12:11 16° SW 08:15:00 10° SSW visible
04 Dec - 18:38:52 10° S 18:42:00 19° SE 18:45:10 10° E daylight
04 Dec - 20:19:18 10° WSW 20:23:21 32° NW 20:27:27 10° NNE daylight
05 Dec - 06:42:36 10° NW 06:47:13 79° SW 06:51:46 10° SE visible
05 Dec - 18:53:59 10° SSW 18:58:19 49° SE 19:02:43 10° NE daylight
05 Dec - 20:37:45 10° WNW 20:39:52 13° NW 20:41:59 10° NNW daylight
06 Dec - 05:18:31 10° N 05:22:07 22° NE 05:25:41 10° E daylight
06 Dec - 06:59:34 10° WNW 07:03:32 28° SW 07:07:28 10° S visible
06 Dec - 17:33:04 10° SE 17:33:22 10° SE 17:33:40 10° SE visible
06 Dec - 19:10:15 10° SW 19:14:40 58° NW 19:19:08 10° NNE daylight
